Caslav, Czech Republic

2:51 AM CET on December 15, 2017 (GMT +0100)
Caslav

Weather History for LKCV - September, 2013

Change the Weather History Date:

Saturday, September 7, 2013

  Actual Average Record
Temperature  
Mean Temperature 63 °F -  
Max Temperature 78 °F - - ()
Min Temperature 48 °F - - ()
Degree Days  
Heating Degree Days 2    
Growing Degree Days 13 (Base 50)    
Moisture  
Dew Point 52 °F    
Average Humidity 68    
Maximum Humidity 100    
Minimum Humidity 36    
Precipitation  
Precipitation 0.00 in - - ()
Sea Level Pressure  
Sea Level Pressure 30.09 in    
Wind  
Wind Speed 3 mph ()    
Max Wind Speed 9 mph    
Max Gust Speed -    
T = Trace of Precipitation, MM = Missing Value Source: Averaged Metar Reports

Daily Weather History Graph

Daily Weather History Graph

Search for Another Location

Airport or City:

Trip Planner

Search our weather history database for the weather conditions in past years. The results will help you decide how hot, cold, wet, or windy it might be!

Date:

Astronomy

Sep. 07, 2013 Rise Set
Actual Time 6:22 AM CEST 7:29 PM CEST
Civil Twilight 5:49 AM CEST 8:02 PM CEST
Nautical Twilight 5:09 AM CEST 8:42 PM CEST
Astronomical Twilight 4:26 AM CEST 9:24 PM CEST
Moon 8:35 AM CEST (9/7) 7:58 PM CEST (9/7)
Length of Visible Light 14h 12m
Length of Day
13h 06m
Waxing Crescent, 4% of the Moon is Illuminated
Sep 7
Waxing Crescent
Sep 12
First Quarter
Sep 19
Full
Sep 27
Last Quarter
Oct 5
New

Hourly Weather History & Observations

Time (CEST) Temp. Dew Point Humidity Pressure Visibility Wind Dir Wind Speed Gust Speed Precip Events Conditions
12:00 AM 57.2 °F 53.6 °F 88% 30.04 in - NNW 2.3 mph - N/A   Clear
1:00 AM 55.4 °F 51.8 °F 88% 30.04 in - Calm Calm - N/A   Clear
2:00 AM 53.6 °F 51.8 °F 94% 30.04 in - Calm Calm - N/A   Clear
3:00 AM 55.4 °F 53.6 °F 94% 30.04 in - Calm Calm - N/A   Clear
4:00 AM 51.8 °F 51.8 °F 100% 30.06 in - Variable 1.2 mph - N/A   Clear
5:00 AM 51.8 °F 51.8 °F 100% 30.06 in - Calm Calm - N/A   Clear
6:00 AM 48.2 °F 48.2 °F 100% 30.06 in - Calm Calm - N/A   Clear
7:00 AM 50.0 °F 50.0 °F 100% 30.09 in - Calm Calm - N/A   Clear
8:00 AM 57.2 °F 53.6 °F 88% 30.09 in - Calm Calm - N/A   Clear
9:00 AM 62.6 °F 53.6 °F 72% 30.09 in - Variable 2.3 mph - N/A   Clear
10:00 AM 68.0 °F 57.2 °F 68% 30.12 in - ESE 4.6 mph - N/A   Clear
11:00 AM 71.6 °F 53.6 °F 53% 30.12 in - ESE 6.9 mph - N/A   Clear
12:00 PM 73.4 °F 53.6 °F 50% 30.12 in - ESE 9.2 mph - N/A   Clear
1:00 PM 75.2 °F 51.8 °F 44% 30.09 in - SE 8.1 mph - N/A   Clear
2:00 PM 77.0 °F 50.0 °F 39% 30.09 in - SSE 9.2 mph - N/A   Clear
3:00 PM 77.0 °F 50.0 °F 39% 30.09 in - SE 8.1 mph - N/A   Clear
4:00 PM 78.8 °F 51.8 °F 39% 30.09 in - SE 6.9 mph - N/A   Clear
5:00 PM 78.8 °F 50.0 °F 36% 30.09 in - ESE 8.1 mph - N/A   Clear
6:00 PM 77.0 °F 50.0 °F 39% 30.09 in - ESE 6.9 mph - N/A   Clear
7:00 PM 75.2 °F 51.8 °F 44% 30.09 in - ESE 5.8 mph - N/A   Clear
8:00 PM 71.6 °F 53.6 °F 53% 30.12 in - SSE 3.5 mph - N/A   Clear
9:00 PM 66.2 °F 53.6 °F 64% 30.12 in - ESE 3.5 mph - N/A   Clear
10:00 PM 64.4 °F 53.6 °F 68% 30.12 in - SSE 6.9 mph - N/A   Clear
11:00 PM 62.6 °F 51.8 °F 68% 30.15 in - SSE 6.9 mph - N/A   Clear